Alexandria, Egypt

1:19 PM EET on February 25, 2018 (GMT +0200)
Alexandria

Weather History for HEAX - November, 2013

Change the Weather History Date:

Thursday, November 21, 2013

  Actual Average Record
Temperature  
Mean Temperature 65 °F -  
Max Temperature 75 °F 67 °F 91 °F (1999)
Min Temperature 55 °F 51 °F 50 °F (2001)
Growing Degree Days 15 (Base 50)    
Moisture  
Dew Point 58 °F    
Average Humidity 78    
Maximum Humidity 100    
Minimum Humidity 48    
Precipitation  
Precipitation 0.00 in 0.06 in - ()
Sea Level Pressure  
Sea Level Pressure 30.02 in    
Wind  
Wind Speed 2 mph ()    
Max Wind Speed 6 mph    
Max Gust Speed -    
Visibility 3.0 miles    
Events      
Averages and records for this station are not official NWS values.
T = Trace of Precipitation, MM = Missing Value Source: Averaged Metar Reports

Daily Weather History Graph

Daily Weather History Graph

Search for Another Location

Airport or City:

Trip Planner

Search our weather history database for the weather conditions in past years. The results will help you decide how hot, cold, wet, or windy it might be!

Date:

Astronomy

Nov. 21, 2013 Rise Set
Actual Time 6:32 AM EET 4:59 PM EET
Civil Twilight 6:06 AM EET 5:25 PM EET
Nautical Twilight 5:37 AM EET 5:54 PM EET
Astronomical Twilight 5:08 AM EET 6:23 PM EET
Moon 8:16 PM EET (11/21) 9:26 AM EET (11/21)
Length of Visible Light 11h 18m
Length of Day
10h 26m
Waning Gibbous, 87% of the Moon is Illuminated
Nov 21
Waning Gibbous
Nov 25
Last Quarter
Dec 3
New
Dec 9
First Quarter
Dec 17
Full

Hourly Weather History & Observations

Time (EET) Temp. Dew Point Humidity Pressure Visibility Wind Dir Wind Speed Gust Speed Precip Events Conditions
12:00 AM 60.8 °F 57.2 °F 88% 30.06 in - East 3.5 mph - N/A   Clear
1:00 AM 60.8 °F 57.2 °F 88% 30.06 in - East 3.5 mph - N/A   Clear
2:00 AM 60 °F 58 °F 90% 30.05 in 6 mi East 3.5 mph - -  
2:00 AM 59.0 °F 57.2 °F 94% 30.04 in - East 3.5 mph - N/A   Clear
3:00 AM 59.0 °F 57.2 °F 94% 30.04 in - East 3.5 mph - N/A   Clear
4:00 AM 59.0 °F 57.2 °F 94% 30.04 in - Calm Calm - N/A   Clear
5:00 AM 58 °F 57 °F 94% 30.05 in 2 mi Calm Calm - -   Mist
5:00 AM 57.2 °F 57.2 °F 100% 30.04 in 1.9 mi Calm Calm - N/A   Mist
6:00 AM 59.0 °F 57.2 °F 94% 30.04 in 1.9 mi Calm Calm - N/A   Mist
7:00 AM 55.4 °F 55.4 °F 100% 30.04 in 0.7 mi Calm Calm - N/A   Mist
8:00 AM 59 °F 58 °F 95% 30.08 in 2 mi Calm Calm - -   Mist
8:00 AM 59.0 °F 57.2 °F 94% 30.06 in 1.9 mi Calm Calm - N/A   Mist
9:00 AM 64.4 °F 60.8 °F 88% 30.09 in 1.9 mi SSW 4.6 mph - N/A   Mist
10:00 AM 69.8 °F 60.8 °F 73% 30.09 in 1.9 mi South 3.5 mph - N/A   Mist
11:00 AM 73 °F 61 °F 57% 30.08 in 2 mi SSE 4.6 mph - -   Mist
11:00 AM 73.4 °F 60.8 °F 65% 30.06 in 1.9 mi SSE 4.6 mph - N/A   Mist
12:00 PM 75.2 °F 60.8 °F 61% 30.04 in 3.7 mi SE 2.3 mph - N/A   Unknown
1:00 PM 75.2 °F 59.0 °F 57% 30.04 in 3.7 mi SE 3.5 mph - N/A   Unknown
2:00 PM 75 °F 59 °F 48% 30.02 in 4 mi South 2.3 mph - -   Haze
2:00 PM 75.2 °F 59.0 °F 57% 30.01 in 3.7 mi South 2.3 mph - N/A   Unknown
3:00 PM 73.4 °F 57.2 °F 57% 29.98 in 3.7 mi SSE 2.3 mph - N/A   Unknown
4:00 PM 73.4 °F 59.0 °F 61% 29.98 in 3.7 mi ESE 3.5 mph - N/A   Unknown
5:00 PM 71.6 °F 59.0 °F 64% 29.95 in 3.7 mi Calm Calm - N/A   Unknown
6:00 PM 68.0 °F 60.8 °F 78% 29.95 in - East 3.5 mph - N/A   Clear
7:00 PM 68.0 °F 59.0 °F 73% 29.95 in - East 5.8 mph - N/A   Clear
8:00 PM 67 °F 59 °F 68% 29.97 in 6 mi Calm Calm - -  
8:00 PM 68.0 °F 59.0 °F 73% 29.95 in - Calm Calm - N/A   Clear
9:00 PM 66.2 °F 57.2 °F 73% 29.98 in - Calm Calm - N/A   Clear
10:00 PM 62.6 °F 57.2 °F 82% 29.98 in - SW 5.8 mph - N/A   Clear
11:00 PM 64.4 °F 59.0 °F 83% 29.95 in - East 3.5 mph - N/A   Clear